Wind_Speed
13 14 14 15 15 15 16 15 15 16 16 16 16 16 17 16 16 15 15 15 15 14 15 15 16 16 16 16 17 17 17 17 18 17 17 17 17 17 17 17 17 18 18
14 15 15 15 16 16 16 16 16 17 17 18 18 18 18 17 17 17 16 16 16 16 17 17 17 17 18 17 18 18 18 18 18 19 19 19 19 18 19 19 19 19 20
15 16 16 16 17 17 17 18 18 18 18 18 18 19 19 19 18 18 18 18 18 18 18 18 18 19 19 19 19 19 20 20 20 21 20 21 21 20 20 20 20 21 21
16 17 17 18 18 18 19 20 20 20 20 20 19 19 19 19 19 19 20 19 19 19 19 20 20 20 20 20 20 20 21 21 21 21 21 22 23 22 22 22 22 22 23
17 18 18 19 19 20 21 21 21 21 21 21 20 20 20 20 20 20 20 20 20 21 21 22 22 21 21 21 21 22 22 22 22 22 22 23 24 23 23 24 24 24 24
18 19 19 20 21 21 22 22 22 22 23 22 22 21 20 21 21 21 20 20 21 22 22 23 22 21 22 22 23 24 24 24 23 23 24 24 25 25 25 25 25 25 25
21 21 22 22 23 23 23 23 23 23 23 23 22 22 22 21 21 21 21 21 22 22 23 23 23 23 23 24 25 25 26 25 25 24 24 25 26 26 26 26 26 26 26
22 23 24 24 25 25 25 24 24 24 23 23 23 22 22 22 22 22 22 22 22 23 23 23 23 24 24 25 26 26 27 27 26 26 25 25 26 26 26 27 27 27 27
25 25 25 26 26 26 26 26 25 25 25 25 24 23 23 23 22 22 22 23 23 24 24 24 24 25 25 26 27 27 27 27 27 27 27 27 27 27 27 27 27 27 27
26 26 27 27 27 27 27 27 27 26 26 26 25 25 24 24 23 23 24 24 25 25 25 25 25 26 27 27 28 28 28 27 27 28 28 28 28 27 27 27 27 27 27
27 27 27 27 28 28 28 28 28 28 27 27 25 26 26 25 24 24 24 25 25 26 26 26 27 27 27 28 28 29 28 28 28 29 28 28 28 28 27 28 28 29 29
28 28 28 29 29 29 29 29 30 29 28 28 27 27 27 26 25 25 26 26 26 27 27 27 27 28 28 28 29 29 29 29 29 29 29 28 28 28 28 29 29 30 30
28 29 29 30 30 30 31 31 31 30 29 29 29 29 28 28 27 27 27 27 27 27 27 27 28 28 28 28 27 27 27 27 28 28 28 28 28 28 28 28 29 29 29
29 30 30 30 30 30 31 31 31 31 31 31 31 30 30 29 29 28 27 28 27 27 27 28 28 28 28 27 27 26 26 26 26 27 26 26 26 27 27 28 29 29 29
30 31 31 30 31 31 31 31 31 31 31 31 31 30 29 29 29 29 29 29 29 29 28 28 28 28 28 28 27 26 27 27 27 26 26 26 27 27 27 28 28 28 29
29 29 30 30 30 31 31 31 31 31 31 31 31 30 30 29 29 29 29 29 29 29 28 28 27 27 27 27 26 26 26 27 27 27 27 27 27 28 29 29 29 29 28
29 29 29 29 30 30 31 31 31 31 31 31 31 30 30 30 30 29 29 29 29 28 28 28 28 28 28 27 27 27 27 28 28 28 28 28 29 29 30 30 30 30 30
29 29 30 30 30 31 31 31 31 31 30 30 30 30 30 30 30 30 29 28 28 28 28 28 28 28 28 28 28 28 28 29 29 29 29 29 30 31 31 31 31 31 31
29 29 30 30 30 30 31 31 31 31 31 30 30 30 30 30 30 29 29 29 28 28 29 29 29 29 29 29 29 29 29 29 29 30 30 30 31 32 31 31 32 32 31
29 30 30 30 30 30 31 31 31 31 31 31 31 31 31 30 30 30 29 29 29 29 29 29 29 30 30 29 29 29 29 29 29 29 30 31 31 31 30 30 30 30 29
29 29 29 29 30 30 30 30 30 30 31 31 31 30 30 30 30 30 29 29 29 29 29 29 29 30 29 29 29 29 29 29 29 29 29 30 30 30 29 29 29 28 28
28 29 29 30 30 30 30 31 31 30 30 30 30 29 28 29 29 28 28 28 27 27 28 28 28 28 29 28 28 27 28 28 28 28 28 28 28 28 28 28 28 28 28
28 29 30 30 30 30 31 30 30 29 29 29 29 28 28 28 29 28 28 28 27 27 27 27 27 27 27 27 27 27 27 27 28 27 27 28 27 27 27 27 28 28 28
28 28 29 29 29 29 29 29 29 29 28 28 28 28 27 27 28 28 28 27 27 27 27 27 27 26 27 27 27 27 27 27 27 27 27 27 27 27 26 26 26 26 26
27 28 28 28 28 28 28 28 28 27 27 27 27 27 27 27 27 27 27 27 27 27 27 27 27 28 27 27 27 27 27 27 28 27 27 27 26 27 26 26 26 26 25
27 27 28 28 28 28 28 27 27 27 27 27 27 27 27 27 27 27 27 27 27 27 27 28 28 28 28 28 28 27 27 27 27 27 27 27 26 26 25 25 25 25 25
Wind_Direction
314 312 312 311 312 311 311 311 309 310 310 306 304 304 304 303 304 302 299 296 291 288 286 282 279 278 278 276 275 274 274 275 273 271 270 271 272 273 274 275 275 275 276
312 311 311 310 310 310 310 310 309 308 307 304 301 300 300 300 300 299 297 294 291 289 288 286 284 281 279 276 274 274 273 273 271 269 268 270 271 272 274 274 275 275 276
311 311 312 312 311 310 310 310 308 306 304 304 300 297 296 296 296 294 293 292 291 291 291 290 287 283 279 276 274 273 273 274 272 269 267 267 269 272 274 274 275 275 276
308 309 311 312 313 312 311 309 307 304 302 301 298 297 297 296 293 291 290 290 290 289 290 290 289 284 280 278 278 276 275 275 273 270 268 268 269 270 270 271 273 274 274
303 305 307 309 310 310 309 308 307 306 304 303 300 297 296 295 295 294 292 291 290 289 289 288 287 283 280 279 278 277 276 276 273 271 270 270 269 269 269 270 271 272 273
299 301 303 304 306 307 307 305 305 303 303 301 299 298 296 295 294 294 293 290 290 290 291 290 287 284 281 279 278 277 277 276 274 272 272 271 270 270 270 271 272 273 273
299 300 302 304 305 305 306 305 305 303 302 301 298 298 297 295 294 292 291 291 291 290 290 291 288 283 280 280 279 279 279 278 274 274 274 273 271 270 270 271 271 272 273
296 298 300 301 302 303 303 303 303 302 302 301 299 297 296 295 295 293 292 292 292 292 291 290 288 285 282 281 280 279 279 278 276 276 275 273 272 271 271 272 271 271 271
294 296 298 299 300 301 301 301 302 302 302 299 298 297 295 294 294 295 295 294 293 292 291 290 288 287 285 283 282 281 279 279 278 277 276 275 273 272 273 272 273 272 272
294 294 295 297 299 299 300 300 300 300 300 298 296 294 293 291 291 293 293 293 293 292 291 289 288 288 286 285 284 282 280 278 277 275 274 274 273 273 272 272 274 274 273
294 294 294 295 295 297 298 298 297 297 297 297 295 293 291 291 291 292 293 293 292 291 290 288 287 286 285 285 284 282 280 278 274 273 272 272 272 273 273 274 273 273 273
293 292 293 292 292 293 295 296 297 295 295 294 292 292 291 293 293 295 295 295 293 291 291 289 288 287 286 287 286 283 280 277 274 272 272 271 272 274 273 273 273 274 272
290 291 292 292 291 292 294 295 295 296 295 296 295 293 291 293 295 295 295 295 294 292 291 290 289 288 287 288 286 284 280 277 277 274 271 271 272 273 274 274 274 275 274
291 293 293 292 292 293 294 294 294 294 295 295 295 294 293 292 293 293 294 294 295 295 292 290 290 289 289 288 286 284 281 278 276 274 272 272 273 274 275 275 274 275 275
290 291 291 291 293 294 294 295 295 295 296 296 295 295 293 293 293 293 294 294 294 294 293 292 290 289 288 286 285 284 282 278 275 274 274 274 274 274 274 275 274 275 275
289 290 291 291 292 293 294 294 295 296 296 297 297 296 295 295 294 293 294 295 294 293 292 293 292 290 288 285 283 283 281 278 277 276 277 276 275 274 275 275 275 276 276
290 291 292 292 292 293 293 294 296 296 297 298 297 296 297 297 296 294 293 293 292 291 291 291 291 291 288 286 284 284 283 280 278 276 275 274 275 274 274 274 275 275 275
290 291 292 294 293 293 294 294 295 297 298 298 297 298 298 297 297 295 294 292 291 290 291 291 291 290 288 286 284 283 282 280 278 277 276 276 275 275 275 276 277 276 275
291 291 293 294 294 294 294 294 295 296 298 299 299 299 299 298 297 295 294 293 292 292 291 291 292 291 289 286 284 283 282 280 278 277 277 276 276 276 276 276 275 275 275
291 292 294 294 294 294 293 293 294 296 297 297 298 298 298 298 298 296 295 294 293 292 292 292 292 292 291 287 284 284 283 282 280 279 278 277 277 276 276 276 275 274 273
291 292 293 294 295 295 294 293 294 296 297 297 298 298 297 297 298 298 296 295 293 293 292 292 291 292 291 289 286 284 284 283 282 281 280 278 277 276 275 276 275 274 274
292 294 294 294 294 295 294 294 294 295 297 298 298 298 299 299 299 299 298 297 296 294 294 293 293 293 293 292 288 286 285 284 284 283 281 278 276 274 274 274 276 277 277
293 294 295 294 294 294 294 294 294 295 297 298 298 297 298 299 299 299 298 297 296 295 295 295 294 294 294 293 291 288 286 285 284 283 281 280 277 275 274 275 277 279 279
293 294 295 295 294 295 296 295 295 295 296 298 298 298 298 298 300 300 299 298 298 297 296 295 294 293 294 292 290 289 286 284 285 285 284 282 279 276 274 275 277 279 279
293 294 295 295 294 294 296 296 295 295 296 297 297 298 299 299 300 300 300 299 298 298 297 296 295 294 293 291 291 290 289 286 284 283 282 281 279 276 275 274 275 277 277
293 294 295 294 293 293 295 295 295 295 296 296 297 298 300 300 300 301 301 301 299 297 296 296 295 294 293 292 291 291 290 288 286 283 281 280 279 277 276 275 274 274 274
Height
5873 5871 5869 5866 5864 5862 5860 5858 5856 5854 5851 5849 5847 5845 5843 5842 5840 5838 5837 5836 5834 5833 5832 5831 5830 5829 5829 5828 5827 5827 5826 5826 5825 5825 5825 5825 5824 5824 5824 5824 5823 5822 5822
5870 5868 5865 5863 5861 5859 5857 5854 5852 5850 5847 5845 5843 5841 5839 5837 5836 5834 5832 5831 5830 5828 5827 5826 5825 5824 5823 5822 5822 5821 5821 5820 5819 5819 5819 5819 5819 5818 5818 5818 5817 5817 5816
5866 5864 5862 5859 5857 5855 5852 5850 5847 5845 5843 5840 5838 5836 5834 5832 5830 5828 5827 5826 5824 5823 5822 5821 5819 5818 5817 5816 5816 5815 5814 5814 5813 5813 5813 5813 5812 5812 5812 5811 5811 5811 5810
5862 5860 5858 5855 5853 5850 5848 5845 5843 5840 5838 5836 5833 5831 5829 5827 5825 5823 5821 5820 5818 5817 5816 5815 5813 5812 5811 5810 5809 5809 5808 5807 5807 5806 5806 5806 5806 5806 5805 5805 5805 5804 5803
5858 5856 5854 5851 5849 5846 5843 5840 5838 5835 5832 5830 5827 5825 5823 5821 5819 5817 5815 5813 5812 5811 5810 5808 5807 5806 5805 5804 5803 5802 5801 5800 5800 5799 5799 5799 5799 5798 5798 5798 5797 5797 5796
5853 5851 5849 5846 5844 5842 5839 5836 5833 5830 5827 5824 5822 5819 5817 5814 5812 5811 5809 5807 5806 5804 5803 5801 5800 5799 5798 5797 5796 5795 5794 5793 5792 5792 5792 5791 5791 5790 5790 5790 5790 5789 5788
5848 5846 5843 5841 5839 5836 5833 5830 5827 5824 5821 5818 5815 5813 5810 5808 5806 5804 5802 5801 5799 5797 5796 5794 5793 5792 5791 5790 5788 5787 5786 5785 5785 5784 5784 5783 5783 5782 5782 5782 5781 5781 5781
5842 5840 5838 5835 5833 5830 5827 5824 5821 5818 5815 5812 5809 5807 5804 5801 5799 5797 5795 5794 5792 5790 5789 5787 5786 5784 5783 5782 5781 5779 5778 5777 5776 5776 5776 5775 5774 5774 5773 5773 5773 5772 5772
5836 5834 5831 5829 5826 5824 5821 5818 5815 5812 5809 5806 5803 5800 5798 5795 5793 5791 5789 5787 5785 5783 5781 5780 5778 5777 5775 5774 5772 5771 5770 5769 5767 5767 5766 5766 5766 5765 5764 5764 5764 5763 5763
5828 5826 5824 5822 5819 5817 5814 5811 5808 5805 5802 5798 5795 5793 5790 5788 5786 5784 5782 5780 5778 5776 5774 5772 5770 5769 5767 5765 5763 5762 5761 5760 5759 5758 5757 5757 5756 5756 5755 5755 5754 5754 5753
5821 5819 5816 5814 5812 5809 5806 5804 5801 5797 5794 5791 5788 5786 5783 5781 5779 5777 5774 5772 5770 5768 5766 5764 5762 5760 5758 5756 5755 5753 5752 5751 5750 5749 5748 5747 5747 5746 5746 5745 5745 5745 5744
5813 5811 5808 5806 5804 5801 5799 5796 5793 5789 5787 5783 5780 5778 5776 5774 5772 5769 5767 5765 5762 5760 5758 5755 5754 5752 5750 5748 5746 5744 5742 5741 5740 5740 5739 5738 5738 5737 5736 5736 5735 5735 5734
5804 5802 5799 5797 5795 5792 5790 5788 5785 5782 5779 5776 5773 5771 5769 5766 5764 5762 5759 5757 5754 5751 5749 5747 5745 5743 5741 5739 5737 5735 5733 5732 5731 5731 5730 5729 5729 5728 5727 5726 5726 5725 5724
5795 5793 5791 5789 5786 5784 5781 5779 5777 5774 5771 5768 5766 5763 5761 5758 5756 5753 5751 5748 5745 5743 5741 5739 5737 5735 5732 5730 5728 5726 5725 5723 5722 5722 5721 5720 5720 5719 5718 5717 5716 5715 5714
5787 5785 5783 5780 5778 5775 5773 5771 5768 5765 5762 5760 5757 5754 5752 5750 5747 5745 5743 5740 5738 5735 5733 5730 5728 5726 5724 5722 5720 5718 5716 5715 5714 5713 5712 5711 5711 5710 5709 5708 5707 5706 5705
5778 5776 5774 5772 5770 5767 5765 5762 5759 5756 5754 5751 5748 5745 5742 5740 5738 5736 5734 5731 5729 5726 5724 5722 5719 5717 5715 5713 5711 5709 5708 5706 5705 5704 5703 5702 5701 5700 5700 5699 5697 5696 5695
5770 5768 5766 5763 5761 5759 5756 5754 5751 5748 5745 5742 5738 5736 5734 5731 5729 5726 5724 5722 5719 5717 5715 5713 5710 5708 5706 5704 5702 5700 5699 5697 5696 5694 5693 5692 5692 5691 5690 5689 5687 5686 5685
5761 5759 5757 5755 5752 5750 5747 5744 5742 5739 5736 5733 5730 5727 5725 5722 5720 5717 5715 5713 5710 5708 5706 5703 5701 5699 5697 5694 5692 5691 5689 5687 5686 5685 5683 5682 5681 5680 5679 5678 5677 5676 5675
5752 5750 5748 5746 5743 5741 5738 5735 5733 5730 5727 5724 5722 5719 5716 5714 5711 5708 5706 5703 5701 5699 5696 5694 5692 5689 5687 5685 5683 5681 5679 5678 5676 5675 5673 5672 5671 5670 5669 5667 5666 5665 5664
5744 5742 5739 5737 5735 5732 5728 5726 5724 5721 5718 5715 5712 5710 5707 5704 5702 5699 5697 5694 5692 5689 5687 5684 5682 5680 5677 5675 5673 5671 5669 5667 5666 5664 5663 5662 5660 5659 5658 5657 5655 5654 5654
5735 5733 5730 5728 5726 5723 5720 5717 5714 5712 5709 5706 5703 5700 5697 5695 5692 5690 5687 5685 5682 5680 5678 5675 5673 5670 5668 5665 5663 5661 5659 5658 5656 5654 5652 5651 5650 5648 5647 5646 5646 5645 5644
5726 5724 5721 5719 5717 5714 5711 5708 5706 5703 5700 5697 5694 5692 5689 5686 5683 5681 5678 5676 5673 5670 5668 5666 5663 5661 5658 5656 5654 5652 5650 5648 5646 5644 5643 5641 5640 5639 5638 5637 5636 5635 5635
5718 5715 5713 5710 5708 5705 5702 5699 5696 5694 5691 5688 5686 5683 5681 5678 5675 5672 5670 5667 5664 5662 5659 5657 5654 5652 5649 5647 5645 5643 5641 5639 5637 5635 5634 5632 5631 5630 5629 5628 5627 5626 5626
5709 5707 5704 5701 5699 5696 5693 5690 5688 5685 5682 5680 5678 5675 5672 5669 5667 5664 5661 5658 5656 5653 5650 5648 5645 5643 5641 5638 5636 5634 5631 5629 5628 5626 5624 5623 5622 5621 5620 5619 5618 5617 5616
5700 5698 5695 5693 5690 5687 5685 5682 5679 5677 5674 5672 5669 5666 5664 5661 5658 5656 5653 5650 5647 5645 5642 5639 5637 5634 5632 5629 5627 5625 5622 5620 5618 5617 5615 5613 5612 5611 5610 5610 5609 5608 5607
5691 5689 5687 5684 5682 5679 5677 5674 5671 5668 5666 5663 5661 5658 5655 5653 5650 5647 5645 5642 5639 5636 5633 5630 5628 5625 5623 5620 5618 5616 5613 5611 5609 5607 5605 5604 5603 5602 5601 5600 5600 5599 5599